Johnstown, PA

6:23 PM EDT on September 21, 2017 (GMT -0400)
Johnstown-Cambria County

Weather History for KJST - December, 2013

Change the Weather History Date:

Monday, December 23, 2013

  Actual Average Record
Temperature  
Mean Temperature 39 °F 27 °F  
Max Temperature 52 °F 34 °F 70 °F (1949)
Min Temperature 25 °F 20 °F -3 °F (1960)
Degree Days  
Heating Degree Days 26 38  
Month to date heating degree days 749 818  
Since 1 July heating degree days 2380 2275  
Cooling Degree Days 0 0  
Month to date cooling degree days 0 0  
Year to date cooling degree days 393 382  
Moisture  
Dew Point 35 °F    
Average Humidity 84    
Maximum Humidity 100    
Minimum Humidity 68    
Precipitation  
Precipitation 0.05 in 0.10 in 0.94 in (1907)
Month to date precipitation 2.29 1.91  
Year to date precipitation 36.28 32.96  
Sea Level Pressure  
Sea Level Pressure 30.06 in    
Wind  
Wind Speed 13 mph (WNW)    
Max Wind Speed 29 mph    
Max Gust Speed 35 mph    
Visibility 7 miles    
Events Fog , Rain , Snow    
T = Trace of Precipitation, MM = Missing Value Source: NWS Daily Summary

Daily Weather History Graph

Daily Weather History Graph

Search for Another Location

Airport or City:

Trip Planner

Search our weather history database for the weather conditions in past years. The results will help you decide how hot, cold, wet, or windy it might be!

Date:

Astronomy

Dec. 23, 2013 Rise Set
Actual Time 7:35 AM EST 4:53 PM EST
Civil Twilight 7:04 AM EST 5:24 PM EST
Nautical Twilight 6:30 AM EST 5:58 PM EST
Astronomical Twilight 5:57 AM EST 6:31 PM EST
Moon 11:02 PM EST (12/23) 10:59 AM EST (12/23)
Length of Visible Light 10h 19m
Length of Day
9h 17m
Waning Gibbous, 68% of the Moon is Illuminated
Dec 23
Waning Gibbous
Dec 25
Last Quarter
Jan 1
New
Jan 7
First Quarter
Jan 15
Full

Hourly Weather History & Observations

Time (EST) Temp. Windchill Dew Point Humidity Pressure Visibility Wind Dir Wind Speed Gust Speed Precip Events Conditions
12:04 AM 52.0 °F - 48.0 °F 86% 29.95 in 10.0 mi West 8.1 mph - N/A   Overcast
12:54 AM 51.1 °F - 46.9 °F 86% 29.98 in 10.0 mi West 10.4 mph - N/A   Overcast
1:26 AM 51.1 °F - 46.9 °F 86% 29.97 in 10.0 mi WSW 12.7 mph - N/A   Overcast
1:54 AM 50.0 °F - 45.0 °F 83% 29.97 in 10.0 mi WSW 9.2 mph 19.6 mph 0.00 in Rain Light Rain
2:24 AM 48.9 °F - 45.0 °F 86% 29.97 in 10.0 mi West 6.9 mph - 0.01 in Rain Light Rain
2:54 AM 48.0 °F - 46.0 °F 93% 29.95 in 10.0 mi WSW 3.5 mph - 0.02 in Rain Light Rain
3:24 AM 48.0 °F - 46.0 °F 93% 29.95 in 10.0 mi WNW 5.8 mph - 0.01 in Rain Light Rain
3:54 AM 46.9 °F - 46.0 °F 97% 29.94 in 10.0 mi WNW 4.6 mph - 0.01 in Rain Light Rain
4:54 AM 46.0 °F 41.9 °F 45.0 °F 96% 29.95 in 10.0 mi West 8.1 mph - 0.00 in   Overcast
5:01 AM 46.0 °F 41.9 °F 45.0 °F 96% 29.94 in 10.0 mi West 8.1 mph - N/A   Overcast
5:24 AM 46.0 °F 41.9 °F 45.0 °F 96% 29.94 in 10.0 mi West 8.1 mph - N/A   Overcast
5:54 AM 46.0 °F 42.5 °F 45.0 °F 96% 29.95 in 7.0 mi West 6.9 mph - N/A   Overcast
6:02 AM 46.0 °F 41.9 °F 45.0 °F 96% 29.95 in 5.0 mi West 8.1 mph - N/A   Overcast
6:10 AM 46.0 °F 41.0 °F 45.0 °F 96% 29.95 in 1.5 mi WNW 10.4 mph - 0.00 in Rain Light Rain
6:20 AM 45.0 °F 38.9 °F 44.1 °F 97% 29.96 in 3.0 mi West 12.7 mph - 0.01 in   Overcast
6:54 AM 44.1 °F 38.6 °F 44.1 °F 100% 29.99 in 8.0 mi West 10.4 mph - 0.01 in   Overcast
7:27 AM 44.1 °F 38.6 °F 43.0 °F 96% 29.97 in 8.0 mi West 10.4 mph - 0.00 in   Overcast
7:37 AM 44.1 °F 39.0 °F 43.0 °F 96% 29.98 in 7.0 mi West 9.2 mph - 0.00 in   Overcast
7:54 AM 44.1 °F 39.0 °F 43.0 °F 96% 30.00 in 2.0 mi West 9.2 mph - 0.00 in   Overcast
8:00 AM 44.1 °F 40.1 °F 43.0 °F 96% 29.99 in 0.8 mi West 6.9 mph - N/A   Overcast
8:14 AM 43.0 °F 37.2 °F 43.0 °F 100% 29.99 in 2.0 mi West 10.4 mph - N/A   Overcast
8:23 AM 43.0 °F 37.7 °F 43.0 °F 100% 30.00 in 3.0 mi West 9.2 mph - 0.00 in Rain Light Rain
8:27 AM 43.0 °F 36.4 °F 43.0 °F 100% 30.00 in 1.2 mi WNW 12.7 mph 21.9 mph 0.00 in Rain Light Rain
8:34 AM 41.0 °F 32.2 °F 39.9 °F 96% 30.01 in 0.5 mi NW 18.4 mph 25.3 mph 0.00 in Fog , Rain Light Rain
8:40 AM 39.9 °F 31.1 °F 39.9 °F 100% 30.01 in 2.0 mi WNW 17.3 mph - 0.00 in Rain Light Rain
8:50 AM 39.2 °F 30.2 °F 39.2 °F 100% 30.02 in 7.0 mi WNW 17.3 mph - 0.00 in   Overcast
8:54 AM 39.9 °F 32.9 °F 39.0 °F 97% 30.05 in 9.0 mi West 11.5 mph 23.0 mph 0.00 in   Overcast
9:23 AM 39.0 °F 30.3 °F 37.9 °F 96% 30.03 in 9.0 mi West 16.1 mph - 0.01 in Rain Light Rain
9:54 AM 37.9 °F 28.9 °F 37.0 °F 97% 30.07 in 10.0 mi WNW 16.1 mph - 0.01 in   Overcast
10:23 AM 37.9 °F 31.5 °F 37.9 °F 100% 30.05 in 9.0 mi West 9.2 mph - N/A   Overcast
10:34 AM 37.9 °F 29.6 °F 37.0 °F 97% 30.04 in 10.0 mi West 13.8 mph 24.2 mph N/A   Overcast
10:52 AM 37.4 °F 28.9 °F 37.4 °F 100% 30.06 in 10.0 mi West 13.8 mph - N/A   Overcast
10:54 AM 37.9 °F 30.0 °F 37.0 °F 97% 30.09 in 9.0 mi West 12.7 mph - 0.00 in Rain Light Rain
10:59 AM 37.0 °F 28.5 °F 37.0 °F 100% 30.06 in 2.5 mi WNW 13.8 mph - 0.00 in Rain Light Rain
11:08 AM 36.0 °F 26.7 °F 36.0 °F 100% 30.06 in 2.0 mi WNW 15.0 mph - 0.00 in Rain Light Rain
11:15 AM 36.0 °F 26.7 °F 35.1 °F 97% 30.06 in 6.0 mi WNW 15.0 mph - 0.00 in Rain Light Rain
11:34 AM 35.1 °F 25.5 °F 34.0 °F 96% 30.05 in 10.0 mi West 15.0 mph - 0.00 in Rain Light Rain
11:54 AM 34.0 °F 24.2 °F 33.1 °F 96% 30.11 in 8.0 mi WNW 15.0 mph - 0.00 in   Overcast
12:54 PM 32.0 °F 20.1 °F 32.0 °F 100% 30.11 in 2.5 mi WNW 19.6 mph 26.5 mph 0.00 in Snow Light Snow
1:03 PM 32.0 °F 20.8 °F 30.9 °F 96% 30.07 in 1.2 mi West 17.3 mph 27.6 mph 0.00 in Snow Light Snow
1:16 PM 32.0 °F 21.2 °F 30.0 °F 92% 30.08 in 2.5 mi WNW 16.1 mph 28.8 mph 0.00 in Snow Light Snow
1:27 PM 30.9 °F 19.8 °F 30.9 °F 100% 30.08 in 1.5 mi WNW 16.1 mph 26.5 mph 0.00 in Snow Light Snow
1:36 PM 30.9 °F 19.1 °F 30.0 °F 96% 30.08 in 1.0 mi WNW 18.4 mph 25.3 mph 0.00 in Snow Light Snow
1:41 PM 30.0 °F 17.2 °F 30.0 °F 100% 30.08 in 0.8 mi WNW 20.7 mph 25.3 mph 0.00 in Snow Light Snow
1:54 PM 30.0 °F 17.9 °F 30.0 °F 100% 30.13 in 1.0 mi WNW 18.4 mph - 0.00 in Snow Light Snow
2:17 PM 30.0 °F 16.3 °F 28.9 °F 96% 30.09 in 2.5 mi West 24.2 mph 29.9 mph 0.00 in   Overcast
2:25 PM 30.0 °F 16.9 °F 28.9 °F 96% 30.09 in 3.0 mi West 21.9 mph 32.2 mph 0.00 in   Overcast
2:38 PM 30.0 °F 17.2 °F 28.9 °F 96% 30.10 in 1.8 mi WNW 20.7 mph 29.9 mph 0.00 in   Overcast
2:50 PM 30.2 °F 16.8 °F 28.4 °F 93% 30.11 in 2.5 mi WNW 23.0 mph 29.9 mph 0.00 in   Overcast
2:54 PM 30.0 °F 17.9 °F 28.9 °F 96% 30.16 in 3.0 mi WNW 18.4 mph 29.9 mph 0.00 in   Overcast
3:11 PM 28.9 °F 14.3 °F 27.0 °F 92% 30.12 in 6.0 mi WNW 26.5 mph 33.4 mph N/A   Overcast
3:46 PM 28.9 °F 15.4 °F 26.1 °F 89% 30.14 in 10.0 mi WNW 21.9 mph 33.4 mph N/A   Overcast
3:54 PM 28.9 °F 15.1 °F 26.1 °F 89% 30.19 in 10.0 mi WNW 23.0 mph 34.5 mph N/A   Overcast
4:08 PM 28.9 °F 17.7 °F 26.1 °F 89% 30.15 in 10.0 mi West 15.0 mph 28.8 mph N/A   Overcast
4:51 PM 28.4 °F 16.6 °F 26.6 °F 93% 30.15 in 10.0 mi WNW 16.1 mph - N/A   Overcast
4:54 PM 28.9 °F 17.3 °F 26.1 °F 89% 30.20 in 10.0 mi WNW 16.1 mph - N/A   Overcast
5:38 PM 28.0 °F 15.3 °F 23.0 °F 81% 30.14 in 10.0 mi WNW 18.4 mph 27.6 mph N/A   Overcast
5:54 PM 28.0 °F 15.7 °F 23.0 °F 81% 30.20 in 10.0 mi WNW 17.3 mph - N/A   Overcast
6:54 PM 27.0 °F 16.7 °F 21.0 °F 78% 30.21 in 10.0 mi West 11.5 mph 21.9 mph N/A   Overcast
7:54 PM 27.0 °F 14.7 °F 19.9 °F 75% 30.23 in 10.0 mi WNW 16.1 mph - N/A   Overcast
8:54 PM 27.0 °F 16.1 °F 18.0 °F 69% 30.24 in 10.0 mi WNW 12.7 mph - N/A   Overcast
9:54 PM 26.1 °F 15.6 °F 18.0 °F 71% 30.24 in 10.0 mi WNW 11.5 mph - N/A   Overcast
10:54 PM 26.1 °F 15.0 °F 17.1 °F 69% 30.24 in 10.0 mi WNW 12.7 mph - N/A   Overcast
11:54 PM 25.0 °F 14.8 °F 17.1 °F 72% 30.25 in 10.0 mi WNW 10.4 mph - N/A   Overcast